AZG27M UAAA-UZTT

Flight info

Callsign AZG27M
Flight time 1h 9m
Altitude 34000
Route LAKEL1F LAKEL L135 MAMIR P984 TISIB TISIB2W
Aircraft B77L/H-SDE1E2E3FGHIJ2J3J4J5M1RWXY/LB1D1

Departure

Time 2026-04-24 19:44
Airport Almaty International Airport (UAAA)

Arrival

Time 2026-04-24 20:54
Airport Tashkent International Airport (UZTT)
Time Latitude Longitude Altitude Speed Heading
2026-04-24 19:38 43.34914 77.01870 2223 ft 0 kts 276°
2026-04-24 19:38 43.34916 77.01848 2223 ft 7 kts 273°
2026-04-24 19:38 43.34920 77.01717 2224 ft 19 kts 275°
2026-04-24 19:39 43.34865 77.01590 2225 ft 16 kts 189°
2026-04-24 19:39 43.34811 77.01688 2226 ft 15 kts 97°
2026-04-24 19:39 43.34802 77.01859 2226 ft 20 kts 94°
2026-04-24 19:39 43.34793 77.02067 2224 ft 22 kts 94°
2026-04-24 19:40 43.34782 77.02296 2227 ft 24 kts 92°
2026-04-24 19:40 43.34772 77.02540 2230 ft 26 kts 84°
2026-04-24 19:40 43.34864 77.02783 2229 ft 32 kts 55°
2026-04-24 19:40 43.35008 77.03071 2228 ft 39 kts 56°
2026-04-24 19:41 43.35175 77.03410 2229 ft 45 kts 56°
2026-04-24 19:41 43.35363 77.03790 2233 ft 50 kts 56°
2026-04-24 19:41 43.35566 77.04202 2237 ft 54 kts 56°
2026-04-24 19:41 43.35789 77.04649 2239 ft 58 kts 56°
2026-04-24 19:42 43.36028 77.05131 2239 ft 62 kts 56°
2026-04-24 19:42 43.36279 77.05637 2241 ft 62 kts 56°
2026-04-24 19:42 43.36468 77.06019 2244 ft 23 kts 55°
2026-04-24 19:42 43.36467 77.06164 2246 ft 15 kts 142°
2026-04-24 19:43 43.36376 77.06190 2248 ft 12 kts 181°
2026-04-24 19:43 43.36305 77.06149 2248 ft 10 kts 227°
2026-04-24 19:43 43.36290 77.06121 2248 ft 3 kts 235°
2026-04-24 19:43 43.36122 77.05785 2245 ft 87 kts 236°
2026-04-24 19:44 43.35613 77.04755 2243 ft 169 kts 235°
2026-04-24 19:44 43.34877 77.03267 2753 ft 199 kts 235°
2026-04-24 19:44 43.34078 77.01630 3777 ft 215 kts 234°
2026-04-24 19:44 43.33237 76.99949 4963 ft 221 kts 234°
2026-04-24 19:45 43.32448 76.98172 5827 ft 225 kts 239°
2026-04-24 19:45 43.31608 76.96265 6376 ft 242 kts 236°
2026-04-24 19:45 43.30727 76.94235 6973 ft 259 kts 248°
2026-04-24 19:45 43.30437 76.91725 7581 ft 277 kts 276°
2026-04-24 19:46 43.31083 76.89241 8294 ft 287 kts 307°
2026-04-24 19:46 43.32604 76.87478 9179 ft 290 kts 335°
2026-04-24 19:46 43.34488 76.86448 9916 ft 295 kts 341°
2026-04-24 19:46 43.36440 76.85509 10093 ft 297 kts 341°
2026-04-24 19:47 43.38414 76.84573 10102 ft 308 kts 341°
2026-04-24 19:47 43.40532 76.83422 10251 ft 340 kts 329°
2026-04-24 19:47 43.42296 76.81175 10858 ft 357 kts 303°
2026-04-24 19:47 43.43195 76.77962 11576 ft 369 kts 277°
2026-04-24 19:48 43.42975 76.74422 12350 ft 377 kts 252°
2026-04-24 19:48 43.41674 76.71282 13375 ft 380 kts 233°
2026-04-24 19:48 43.38204 76.65753 15388 ft 387 kts 231°
2026-04-24 19:49 43.34604 76.60117 17244 ft 395 kts 231°
2026-04-24 19:49 43.30968 76.54437 19174 ft 401 kts 231°
2026-04-24 19:50 43.25336 76.45660 21742 ft 413 kts 231°
2026-04-24 19:50 43.23406 76.42657 22603 ft 416 kts 231°
2026-04-24 19:51 43.19533 76.36644 24170 ft 423 kts 231°
2026-04-24 19:51 43.17573 76.33605 24916 ft 426 kts 231°
2026-04-24 19:52 43.13646 76.27528 26446 ft 428 kts 231°
2026-04-24 19:52 43.11662 76.24461 27134 ft 431 kts 230°
2026-04-24 19:52 43.09654 76.21362 27797 ft 434 kts 230°
2026-04-24 19:52 43.07614 76.18217 28516 ft 437 kts 230°
2026-04-24 19:53 43.05582 76.15087 29260 ft 438 kts 230°
2026-04-24 19:53 43.03533 76.11935 30013 ft 439 kts 230°
2026-04-24 19:53 42.99461 76.05683 31964 ft 428 kts 230°
2026-04-24 19:54 42.97489 76.02662 32986 ft 419 kts 230°
2026-04-24 19:54 42.95577 75.99734 33852 ft 413 kts 231°
2026-04-24 19:54 42.93645 75.96777 34232 ft 417 kts 230°
2026-04-24 19:55 42.90382 75.91791 34294 ft 415 kts 231°
2026-04-24 19:55 42.85854 75.84885 34317 ft 414 kts 231°
2026-04-24 19:56 42.81993 75.79010 34298 ft 414 kts 230°
2026-04-24 19:56 42.78109 75.73111 34303 ft 416 kts 231°
2026-04-24 19:57 42.74228 75.67230 34301 ft 416 kts 231°
2026-04-24 19:57 42.70343 75.61353 34290 ft 416 kts 230°
2026-04-24 19:58 42.66457 75.55488 34311 ft 416 kts 230°
2026-04-24 19:58 42.62545 75.49596 34344 ft 416 kts 230°
2026-04-24 19:59 42.58654 75.43745 34348 ft 417 kts 230°
2026-04-24 19:59 42.54772 75.37922 34359 ft 417 kts 230°
2026-04-24 20:00 42.50869 75.32078 34381 ft 418 kts 230°
2026-04-24 20:00 42.46957 75.26231 34379 ft 418 kts 230°
2026-04-24 20:01 42.43288 75.20131 34369 ft 416 kts 238°
2026-04-24 20:01 42.40840 75.13068 34372 ft 417 kts 250°
2026-04-24 20:02 42.39283 75.06854 34368 ft 417 kts 250°
2026-04-24 20:02 42.37072 74.98126 34369 ft 418 kts 250°
2026-04-24 20:03 42.35179 74.90740 34375 ft 417 kts 250°
2026-04-24 20:03 42.33257 74.83288 34385 ft 417 kts 250°
2026-04-24 20:04 42.31323 74.75831 34386 ft 418 kts 250°
2026-04-24 20:04 42.29391 74.68405 34395 ft 418 kts 250°
2026-04-24 20:05 42.27462 74.61019 34381 ft 418 kts 250°
2026-04-24 20:05 42.25517 74.53599 34381 ft 418 kts 250°
2026-04-24 20:06 42.23579 74.46227 34371 ft 418 kts 250°
2026-04-24 20:06 42.21629 74.38829 34350 ft 417 kts 250°
2026-04-24 20:07 42.19997 74.32661 34373 ft 419 kts 249°
2026-04-24 20:07 42.17717 74.24065 34378 ft 418 kts 249°
2026-04-24 20:08 42.15755 74.16691 34382 ft 418 kts 249°
2026-04-24 20:08 42.13775 74.09275 34381 ft 418 kts 249°
2026-04-24 20:09 42.11795 74.01880 34364 ft 419 kts 249°
2026-04-24 20:09 42.09804 73.94466 34360 ft 421 kts 249°
2026-04-24 20:10 42.07813 73.87072 34373 ft 419 kts 249°
2026-04-24 20:10 42.05824 73.79713 34375 ft 419 kts 249°
2026-04-24 20:11 42.03872 73.72284 34380 ft 419 kts 250°
2026-04-24 20:11 42.02000 73.64808 34383 ft 421 kts 250°
2026-04-24 20:12 42.00126 73.57363 34383 ft 421 kts 250°
2026-04-24 20:12 41.98241 73.49915 34380 ft 422 kts 250°
2026-04-24 20:13 41.96345 73.42454 34363 ft 422 kts 250°
2026-04-24 20:13 41.94443 73.34998 34357 ft 422 kts 250°
2026-04-24 20:14 41.92523 73.27496 34356 ft 423 kts 250°
2026-04-24 20:14 41.90607 73.20033 34331 ft 423 kts 250°
2026-04-24 20:15 41.88676 73.12536 34335 ft 424 kts 250°
2026-04-24 20:15 41.86743 73.05054 34321 ft 424 kts 250°
2026-04-24 20:16 41.84813 72.97607 34310 ft 424 kts 250°
2026-04-24 20:16 41.82874 72.90144 34294 ft 423 kts 250°
2026-04-24 20:17 41.80929 72.82680 34314 ft 425 kts 250°
2026-04-24 20:17 41.77994 72.71461 34285 ft 426 kts 250°
2026-04-24 20:18 41.76032 72.63992 34293 ft 427 kts 250°
2026-04-24 20:18 41.74062 72.56510 34305 ft 426 kts 250°
2026-04-24 20:19 41.72080 72.49012 34311 ft 426 kts 250°
2026-04-24 20:19 41.70099 72.41539 34307 ft 427 kts 250°
2026-04-24 20:20 41.68116 72.34077 34317 ft 427 kts 250°
2026-04-24 20:20 41.66108 72.26547 34344 ft 427 kts 250°
2026-04-24 20:21 41.64102 72.19048 34299 ft 428 kts 250°
2026-04-24 20:21 41.62099 72.11583 34330 ft 428 kts 250°
2026-04-24 20:22 41.60081 72.04086 34317 ft 428 kts 250°
2026-04-24 20:22 41.58071 71.96639 34318 ft 430 kts 250°
2026-04-24 20:23 41.56041 71.89143 34305 ft 429 kts 250°
2026-04-24 20:23 41.54006 71.81647 34319 ft 429 kts 250°
2026-04-24 20:24 41.51965 71.74155 34291 ft 430 kts 250°
2026-04-24 20:24 41.49923 71.66680 34291 ft 430 kts 250°
2026-04-24 20:25 41.47874 71.59203 34275 ft 429 kts 250°
2026-04-24 20:25 41.45813 71.51704 34319 ft 430 kts 250°
2026-04-24 20:26 41.43751 71.44225 34300 ft 431 kts 250°
2026-04-24 20:26 41.41671 71.36704 34290 ft 433 kts 250°
2026-04-24 20:27 41.39587 71.29187 34286 ft 432 kts 249°
2026-04-24 20:27 41.37498 71.21667 34289 ft 433 kts 250°
2026-04-24 20:28 41.35405 71.14159 34299 ft 434 kts 250°
2026-04-24 20:28 41.33303 71.06640 34290 ft 433 kts 249°
2026-04-24 20:29 41.31196 70.99126 34296 ft 434 kts 249°
2026-04-24 20:29 41.29097 70.91662 33853 ft 427 kts 249°
2026-04-24 20:30 41.28053 70.87960 33101 ft 428 kts 250°
2026-04-24 20:30 41.27012 70.84272 32369 ft 428 kts 250°
2026-04-24 20:30 41.25957 70.80540 31618 ft 428 kts 250°
2026-04-24 20:30 41.24914 70.76856 30955 ft 427 kts 250°
2026-04-24 20:31 41.23872 70.73178 30551 ft 437 kts 250°
2026-04-24 20:31 41.22780 70.69333 30111 ft 441 kts 250°
2026-04-24 20:31 41.21707 70.65561 29634 ft 439 kts 250°
2026-04-24 20:31 41.20633 70.61787 29142 ft 435 kts 250°
2026-04-24 20:32 41.19562 70.58034 28645 ft 430 kts 250°
2026-04-24 20:32 41.18507 70.54336 28153 ft 427 kts 250°
2026-04-24 20:32 41.17453 70.50653 27657 ft 425 kts 249°
2026-04-24 20:32 41.16398 70.46969 27154 ft 424 kts 249°
2026-04-24 20:33 41.15364 70.43366 26670 ft 421 kts 249°
2026-04-24 20:33 41.14324 70.39744 26166 ft 419 kts 249°
2026-04-24 20:33 41.13286 70.36134 25658 ft 415 kts 249°
2026-04-24 20:33 41.12254 70.32550 25154 ft 412 kts 249°
2026-04-24 20:34 41.11228 70.28995 24629 ft 410 kts 249°
2026-04-24 20:34 41.10209 70.25477 24111 ft 408 kts 248°
2026-04-24 20:34 41.08980 70.22095 23608 ft 405 kts 242°
2026-04-24 20:34 41.07655 70.18827 23082 ft 403 kts 242°
2026-04-24 20:35 41.06323 70.15564 22554 ft 400 kts 242°
2026-04-24 20:35 41.05002 70.12333 22042 ft 397 kts 242°
2026-04-24 20:35 41.03685 70.09114 21502 ft 395 kts 242°
2026-04-24 20:35 41.02365 70.05891 20966 ft 392 kts 241°
2026-04-24 20:36 41.01062 70.02712 20446 ft 390 kts 241°
2026-04-24 20:36 40.99761 69.99544 19923 ft 388 kts 241°
2026-04-24 20:36 40.98482 69.96432 19410 ft 386 kts 241°
2026-04-24 20:36 40.97200 69.93317 18908 ft 382 kts 241°
2026-04-24 20:37 40.95924 69.90218 18410 ft 380 kts 241°
2026-04-24 20:37 40.94660 69.87151 17904 ft 379 kts 241°
2026-04-24 20:37 40.93379 69.84048 17391 ft 377 kts 242°
2026-04-24 20:37 40.92335 69.80920 16892 ft 376 kts 251°
2026-04-24 20:38 40.91726 69.77551 16376 ft 375 kts 261°
2026-04-24 20:38 40.91578 69.74086 15866 ft 375 kts 269°
2026-04-24 20:38 40.91618 69.70646 15340 ft 373 kts 270°
2026-04-24 20:38 40.91666 69.67218 14824 ft 372 kts 270°
2026-04-24 20:39 40.91714 69.63773 14295 ft 370 kts 270°
2026-04-24 20:39 40.91760 69.60363 13769 ft 368 kts 269°
2026-04-24 20:39 40.91803 69.56996 13252 ft 366 kts 269°
2026-04-24 20:39 40.91845 69.53643 12732 ft 364 kts 270°
2026-04-24 20:40 40.91886 69.50326 12228 ft 362 kts 270°
2026-04-24 20:40 40.91925 69.46989 11716 ft 359 kts 270°
2026-04-24 20:40 40.91963 69.43708 11200 ft 357 kts 270°
2026-04-24 20:40 40.92000 69.40459 10791 ft 351 kts 270°
2026-04-24 20:41 40.92035 69.37261 10668 ft 335 kts 270°
2026-04-24 20:41 40.92068 69.34247 10579 ft 321 kts 270°
2026-04-24 20:41 40.92099 69.31332 10458 ft 308 kts 269°
2026-04-24 20:41 40.92128 69.28509 10335 ft 297 kts 269°
2026-04-24 20:42 40.92154 69.25848 10218 ft 286 kts 269°
2026-04-24 20:42 40.92179 69.23256 10090 ft 275 kts 269°
2026-04-24 20:42 40.92203 69.20754 9949 ft 266 kts 269°
2026-04-24 20:42 40.92225 69.18334 9616 ft 265 kts 269°
2026-04-24 20:43 40.92247 69.15896 9256 ft 265 kts 269°
2026-04-24 20:43 40.92268 69.13450 8936 ft 264 kts 269°
2026-04-24 20:43 40.92289 69.11025 8803 ft 268 kts 269°
2026-04-24 20:43 40.92310 69.08543 8675 ft 269 kts 269°
2026-04-24 20:44 40.92331 69.06059 8662 ft 269 kts 269°
2026-04-24 20:44 40.92417 69.03590 8535 ft 266 kts 281°
2026-04-24 20:44 40.93142 69.01347 7912 ft 274 kts 308°
2026-04-24 20:44 40.94634 68.99803 7521 ft 275 kts 337°
2026-04-24 20:45 40.96520 68.99403 7202 ft 273 kts
2026-04-24 20:45 40.98344 69.00015 6897 ft 270 kts 13°
2026-04-24 20:45 41.00203 69.00349 6593 ft 268 kts
2026-04-24 20:45 41.02060 69.00337 6296 ft 264 kts 358°
2026-04-24 20:46 41.03896 69.00230 6094 ft 263 kts 357°
2026-04-24 20:46 41.05718 69.00105 5929 ft 259 kts 357°
2026-04-24 20:46 41.07496 68.99980 5774 ft 249 kts 357°
2026-04-24 20:46 41.09207 68.99860 5637 ft 240 kts 357°
2026-04-24 20:47 41.10868 68.99744 5512 ft 230 kts 357°
2026-04-24 20:47 41.12436 68.99635 5367 ft 217 kts 357°
2026-04-24 20:47 41.13896 68.99532 5240 ft 204 kts 357°
2026-04-24 20:47 41.15270 68.99435 5132 ft 191 kts 357°
2026-04-24 20:48 41.16582 68.99344 5025 ft 185 kts 357°
2026-04-24 20:48 41.17866 68.99254 4913 ft 183 kts 358°
2026-04-24 20:48 41.19140 68.99165 4806 ft 181 kts 358°
2026-04-24 20:48 41.20406 68.99076 4704 ft 181 kts 358°
2026-04-24 20:49 41.21636 68.99298 4587 ft 179 kts 27°
2026-04-24 20:49 41.22512 69.00460 4472 ft 180 kts 65°
2026-04-24 20:49 41.22880 69.02047 4385 ft 181 kts 75°
2026-04-24 20:49 41.23131 69.03690 4282 ft 181 kts 79°
2026-04-24 20:50 41.23322 69.05362 4181 ft 181 kts 81°
2026-04-24 20:50 41.23504 69.07029 4080 ft 181 kts 80°
2026-04-24 20:50 41.23687 69.08688 3886 ft 182 kts 80°
2026-04-24 20:50 41.23873 69.10358 3661 ft 179 kts 80°
2026-04-24 20:51 41.24054 69.11974 3449 ft 178 kts 80°
2026-04-24 20:51 41.24236 69.13613 3231 ft 173 kts 80°
2026-04-24 20:51 41.24403 69.15118 3024 ft 159 kts 80°
2026-04-24 20:51 41.24561 69.16527 2866 ft 150 kts 80°
2026-04-24 20:52 41.24711 69.17899 2683 ft 151 kts 79°
2026-04-24 20:52 41.24869 69.19304 2471 ft 153 kts 79°
2026-04-24 20:52 41.25024 69.20679 2257 ft 150 kts 81°
2026-04-24 20:52 41.25180 69.22053 2035 ft 147 kts 79°
2026-04-24 20:53 41.25328 69.23372 1841 ft 144 kts 80°
2026-04-24 20:53 41.25473 69.24689 1656 ft 141 kts 80°
2026-04-24 20:53 41.25613 69.25969 1482 ft 138 kts 81°
2026-04-24 20:53 41.25742 69.27157 1430 ft 113 kts 82°
2026-04-24 20:54 41.25837 69.28029 1430 ft 77 kts 81°
2026-04-24 20:54 41.25897 69.28577 1430 ft 38 kts 81°
2026-04-24 20:54 41.25923 69.28814 1430 ft 14 kts 81°
2026-04-24 20:54 41.25973 69.28904 1430 ft 12 kts
2026-04-24 20:55 41.26045 69.28853 1430 ft 11 kts 316°
2026-04-24 20:55 41.26103 69.28783 1430 ft 10 kts 317°
2026-04-24 20:55 41.26156 69.28719 1430 ft 9 kts 316°
2026-04-24 20:55 41.26183 69.28642 1430 ft 9 kts 276°
2026-04-24 20:56 41.26188 69.28558 1430 ft 9 kts 274°
2026-04-24 20:56 41.26190 69.28476 1430 ft 8 kts 270°
2026-04-24 20:56 41.26191 69.28394 1430 ft 8 kts 270°
2026-04-24 20:56 41.26185 69.28315 1430 ft 8 kts 261°
2026-04-24 20:57 41.26175 69.28237 1430 ft 8 kts 262°
2026-04-24 20:57 41.26167 69.28161 1430 ft 8 kts 262°
2026-04-24 20:57 41.26158 69.28085 1430 ft 8 kts 261°
2026-04-24 20:57 41.26154 69.28011 1430 ft 7 kts 290°
2026-04-24 20:58 41.26192 69.27972 1430 ft 6 kts 345°
2026-04-24 20:58 41.26238 69.27959 1430 ft 5 kts 337°
2026-04-24 20:58 41.26249 69.27921 1430 ft 4 kts 271°
2026-04-24 20:58 41.26247 69.27891 1430 ft 1 kts 263°
2026-04-24 20:59 41.26247 69.27884 1430 ft 0 kts 263°